Skip Page Navigation
NASA JPL Caltech
NASA Logo - Jet Propulsion Laboratory + View the NASA Portal
+ Center for Near-Earth Object Studies
JPL Home Earth Solar System Stars & Galaxies Technology
JPL Solar System Dynamics
BODIES ORBITS EPHEMERIDES TOOLS PHYSICAL DATA DISCOVERY FAQ SITE MAP
IMPORTANT: The SSD Announcement email list is now available. Major changes are coming in the near future, including possible hostname and/or URL changes. To be notified of such changes, subscribe to this email list.

Please visit this page for more details.


JPL Small-Body Database Browser
Search: [ help ]  
233669 (2008 RC30)
Classification: Main-belt Asteroid          SPK-ID: 2233669
Ephemeris | Orbit Diagram | Orbital Elements | Mission Design | Physical Parameters | Discovery Circumstances ]

[ show orbit diagram ]
Orbital Elements at Epoch 2458600.5 (2019-Apr-27.0) TDB
Reference: JPL 12 (heliocentric ecliptic J2000)
 Element Value Uncertainty (1-sigma)   Units 
e .04494506682541486 5.7741e-08  
a 2.358646074292366 1.6603e-08 au
q 2.252636568865793 1.4065e-07 au
i 2.462690299617695 7.1944e-06 deg
node 351.2728653348154 0.00011664 deg
peri 135.3791188937161 0.00013935 deg
M 209.4927733753788 7.6285e-05 deg
tp 2459153.655768941932
(2020-Oct-31.15576894)
0.00028203 TDB
period 1323.099769260643
3.62
1.3971e-05
3.825e-08
d
yr
n .272088324980338 2.873e-09 deg/d
Q 2.464655579718938 1.735e-08 au
  Orbit Determination Parameters
   # obs. used (total)      252  
   data-arc span      10092 days (27.63 yr)  
   first obs. used      1992-03-11  
   last obs. used      2019-10-28  
   planetary ephem.      DE431  
   SB-pert. ephem.      SB431-N16  
   condition code      0  
   norm. resid. RMS      .6449  
   source      ORB  
   producer      Otto Matic  
   solution date      2019-Nov-08 01:36:53  

Additional Information
 Earth MOID = 1.26872 au 
 Jupiter MOID = 2.54105 au 
 T_jup = 3.550 
[ show covariance matrix ]

Ephemeris | Orbit Diagram | Orbital Elements | Mission Design | Physical Parameters | Discovery Circumstances ]

Physical Parameter Table
Parameter Symbol Value Units Sigma Reference Notes
absolute magnitude H 16.9   n/a MPO401792  

233669 (2008 RC30)          Discovered 2008-Sep-02 by Spacewatch at Kitt Peak
Reference: 20100228/Numbers.arcLast Updated: 2010-03-03

Alternate Designations
 2008 RC30 = 2001 TG186 
Ephemeris | Orbit Diagram | Orbital Elements | Mission Design | Physical Parameters | Discovery Circumstances ]
ABOUT SSD CREDITS/AWARDS PRIVACY/COPYRIGHT GLOSSARY LINKS
FirstGov 2019-Dec-14 09:01 UT
(server date/time)  
NASA Home Page
Site Manager:   Ryan S. Park
Webmaster  Alan B. Chamberlin